When you browse on this site, cookies collect data to enhance your experience and personalize the content and advertising you see.
Visit our Privacy Policy to learn more. By continuing to use the site, you agree to this use of cookies and data.
EN

Hourly Weather Godzikowice

Today, 25 September, Friday

Time Temperature Precipitation Wind Pressure Humidity
00:00 +17°C° 0 mm 2 mps 741 mmHg 77%
01:00 +17°C° 0 mm 3 mps 741 mmHg 78%
02:00 +17°C° 0 mm 3 mps 740 mmHg 77%
03:00 +17°C° 0 mm 4 mps 739 mmHg 76%
04:00 +17°C° 0 mm 4 mps 738 mmHg 76%
05:00 +16°C° 0 mm 5 mps 738 mmHg 74%
06:00 +17°C° 0 mm 6 mps 737 mmHg 71%
07:00 +17°C° 0 mm 7 mps 736 mmHg 69%
08:00 +20°C° 0 mm 7 mps 736 mmHg 66%
09:00 +21°C° 0 mm 7 mps 736 mmHg 63%
10:00 +22°C° 0 mm 7 mps 736 mmHg 60%
11:00 +20°C° 1.3 mm 7 mps 735 mmHg 69%
12:00 +17°C° 1.3 mm 6 mps 735 mmHg 78%
13:00 +16°C° 1.3 mm 5 mps 735 mmHg 87%
14:00 +15°C° 0.9 mm 4 mps 735 mmHg 88%
15:00 +16°C° 0.9 mm 2 mps 735 mmHg 88%
16:00 +16°C° 0.9 mm 1 mps 735 mmHg 89%
17:00 +15°C° 0 mm 1 mps 735 mmHg 90%
18:00 +15°C° 0 mm 1 mps 735 mmHg 91%
19:00 +15°C° 0 mm 1 mps 735 mmHg 92%
20:00 +14°C° 0 mm 1 mps 735 mmHg 93%
21:00 +14°C° 0 mm 1 mps 735 mmHg 93%
22:00 +14°C° 0 mm 1 mps 735 mmHg 94%
23:00 +14°C° 0.8 mm 2 mps 734 mmHg 94%

Tomorrow, 26 September, Saturday

Time Temperature Precipitation Wind Pressure Humidity
00:00 +13°C° 0.8 mm 3 mps 733 mmHg 95%
01:00 +13°C° 0.8 mm 3 mps 733 mmHg 95%
02:00 +13°C° 0.8 mm 4 mps 732 mmHg 95%
03:00 +13°C° 0.8 mm 4 mps 731 mmHg 94%
04:00 +13°C° 0.8 mm 5 mps 730 mmHg 93%
05:00 +13°C° 0.6 mm 5 mps 730 mmHg 93%
06:00 +14°C° 0.6 mm 5 mps 729 mmHg 94%
07:00 +14°C° 0.6 mm 6 mps 729 mmHg 94%
08:00 +15°C° 0.7 mm 6 mps 729 mmHg 92%
09:00 +15°C° 0.7 mm 6 mps 730 mmHg 90%
10:00 +16°C° 0.7 mm 6 mps 730 mmHg 88%
11:00 +16°C° 0 mm 6 mps 730 mmHg 81%
12:00 +16°C° 0 mm 6 mps 731 mmHg 74%
13:00 +17°C° 0 mm 6 mps 731 mmHg 68%
14:00 +15°C° 0 mm 6 mps 732 mmHg 68%
15:00 +14°C° 0 mm 6 mps 733 mmHg 69%
16:00 +13°C° 0 mm 6 mps 733 mmHg 69%
17:00 +11°C° 0 mm 6 mps 734 mmHg 70%
18:00 +10°C° 0 mm 5 mps 734 mmHg 71%
19:00 +10°C° 0 mm 4 mps 735 mmHg 72%
20:00 +10°C° 0 mm 4 mps 735 mmHg 72%
21:00 +8°C° 0 mm 4 mps 736 mmHg 73%
22:00 +8°C° 0 mm 4 mps 736 mmHg 74%
23:00 +7°C° 0 mm 4 mps 737 mmHg 75%

Day after tomorrow, 27 September, Sunday

Time Temperature Precipitation Wind Pressure Humidity
00:00 +7°C° 0 mm 4 mps 737 mmHg 77%
01:00 +8°C° 0 mm 3 mps 737 mmHg 79%
02:00 +8°C° 0 mm 3 mps 738 mmHg 79%
03:00 +8°C° 0 mm 3 mps 738 mmHg 79%
04:00 +8°C° 0 mm 3 mps 738 mmHg 79%
05:00 +8°C° 0 mm 3 mps 738 mmHg 78%
06:00 +8°C° 0 mm 3 mps 738 mmHg 78%
07:00 +9°C° 0 mm 3 mps 739 mmHg 77%
08:00 +10°C° 0 mm 3 mps 739 mmHg 73%
09:00 +11°C° 0 mm 3 mps 739 mmHg 68%
10:00 +12°C° 0 mm 3 mps 739 mmHg 64%
11:00 +12°C° 0 mm 3 mps 739 mmHg 64%
12:00 +12°C° 0 mm 4 mps 739 mmHg 64%
13:00 +13°C° 0 mm 4 mps 739 mmHg 64%
14:00 +12°C° 0.1 mm 4 mps 739 mmHg 67%
15:00 +12°C° 0.1 mm 4 mps 739 mmHg 70%
16:00 +12°C° 0.1 mm 4 mps 739 mmHg 73%
17:00 +12°C° 0.4 mm 3 mps 740 mmHg 76%
18:00 +11°C° 0.4 mm 3 mps 740 mmHg 78%
19:00 +11°C° 0.4 mm 3 mps 740 mmHg 81%
20:00 +11°C° 0.4 mm 4 mps 740 mmHg 80%
21:00 +11°C° 0.4 mm 4 mps 741 mmHg 79%
22:00 +10°C° 0.4 mm 5 mps 741 mmHg 78%
23:00 +10°C° 0.4 mm 5 mps 741 mmHg 77%

28 September, Monday

Time Temperature Precipitation Wind Pressure Humidity
00:00 +10°C° 0.4 mm 5 mps 741 mmHg 77%
01:00 +11°C° 0.4 mm 4 mps 741 mmHg 77%
02:00 +9°C° 0.3 mm 5 mps 741 mmHg 78%
03:00 +9°C° 0.3 mm 5 mps 741 mmHg 78%
04:00 +9°C° 0.3 mm 6 mps 741 mmHg 79%
05:00 +9°C° 0.3 mm 6 mps 741 mmHg 78%
06:00 +9°C° 0.3 mm 5 mps 741 mmHg 76%
07:00 +9°C° 0.3 mm 5 mps 742 mmHg 75%
08:00 +10°C° 0 mm 5 mps 742 mmHg 71%
09:00 +12°C° 0 mm 5 mps 742 mmHg 67%
10:00 +13°C° 0 mm 5 mps 742 mmHg 63%
11:00 +14°C° 0.1 mm 5 mps 743 mmHg 60%
12:00 +14°C° 0.1 mm 5 mps 743 mmHg 57%
13:00 +15°C° 0.1 mm 6 mps 743 mmHg 54%
14:00 +15°C° 0 mm 5 mps 743 mmHg 56%
15:00 +15°C° 0 mm 4 mps 743 mmHg 57%
16:00 +15°C° 0 mm 4 mps 743 mmHg 58%
17:00 +14°C° 0 mm 4 mps 743 mmHg 62%
18:00 +13°C° 0 mm 4 mps 743 mmHg 65%
19:00 +12°C° 0 mm 3 mps 744 mmHg 68%
20:00 +12°C° 0 mm 4 mps 744 mmHg 70%
21:00 +12°C° 0 mm 4 mps 744 mmHg 72%
22:00 +11°C° 0 mm 4 mps 744 mmHg 74%
23:00 +11°C° 0 mm 4 mps 744 mmHg 75%

29 September, Tuesday

Time Temperature Precipitation Wind Pressure Humidity
00:00 +11°C° 0 mm 4 mps 744 mmHg 76%
01:00 +11°C° 0 mm 4 mps 743 mmHg 77%
02:00 +11°C° 0 mm 4 mps 743 mmHg 78%
03:00 +11°C° 0 mm 3 mps 743 mmHg 78%
04:00 +11°C° 0 mm 3 mps 743 mmHg 78%
05:00 +11°C° 0.2 mm 3 mps 743 mmHg 81%
06:00 +11°C° 0.2 mm 3 mps 744 mmHg 83%
07:00 +12°C° 0.2 mm 2 mps 744 mmHg 86%
08:00 +12°C° 0.2 mm 3 mps 744 mmHg 85%
09:00 +12°C° 0.2 mm 3 mps 744 mmHg 84%
10:00 +13°C° 0.2 mm 4 mps 744 mmHg 83%
11:00 +13°C° 0.4 mm 4 mps 744 mmHg 81%
12:00 +14°C° 0.4 mm 3 mps 744 mmHg 78%
13:00 +14°C° 0.4 mm 3 mps 745 mmHg 76%
14:00 +14°C° 0.3 mm 3 mps 745 mmHg 79%
15:00 +13°C° 0.3 mm 3 mps 745 mmHg 81%
16:00 +14°C° 0.3 mm 2 mps 745 mmHg 84%
17:00 +13°C° 0.3 mm 3 mps 745 mmHg 86%
18:00 +12°C° 0.3 mm 3 mps 746 mmHg 88%
19:00 +12°C° 0.3 mm 3 mps 746 mmHg 90%
20:00 +12°C° 0.1 mm 3 mps 746 mmHg 91%
21:00 +11°C° 0.1 mm 3 mps 746 mmHg 93%
22:00 +11°C° 0.1 mm 3 mps 747 mmHg 95%
23:00 +10°C° 0 mm 3 mps 747 mmHg 95%

30 September, Wednesday

Time Temperature Precipitation Wind Pressure Humidity
00:00 +10°C° 0 mm 3 mps 747 mmHg 96%
01:00 +10°C° 0 mm 3 mps 747 mmHg 96%
02:00 +10°C° 0 mm 3 mps 747 mmHg 96%
03:00 +9°C° 0 mm 3 mps 747 mmHg 96%
04:00 +9°C° 0 mm 3 mps 747 mmHg 97%
05:00 +9°C° 0 mm 3 mps 747 mmHg 96%
06:00 +10°C° 0 mm 3 mps 747 mmHg 96%
07:00 +10°C° 0 mm 3 mps 747 mmHg 96%
08:00 +11°C° 0 mm 3 mps 747 mmHg 90%
09:00 +12°C° 0 mm 4 mps 747 mmHg 85%
10:00 +14°C° 0 mm 5 mps 747 mmHg 79%
11:00 +14°C° 0 mm 5 mps 747 mmHg 77%
12:00 +15°C° 0 mm 5 mps 747 mmHg 74%
13:00 +15°C° 0 mm 5 mps 747 mmHg 71%
14:00 +15°C° 0 mm 5 mps 747 mmHg 71%
15:00 +15°C° 0 mm 5 mps 746 mmHg 72%
16:00 +15°C° 0 mm 5 mps 746 mmHg 72%
17:00 +14°C° 0 mm 4 mps 746 mmHg 76%
18:00 +13°C° 0 mm 4 mps 746 mmHg 80%
19:00 +13°C° 0 mm 4 mps 746 mmHg 84%
20:00 +12°C° 0 mm 4 mps 746 mmHg 84%
21:00 +12°C° 0 mm 4 mps 746 mmHg 85%
22:00 +12°C° 0 mm 4 mps 746 mmHg 85%
23:00 +12°C° 0 mm 4 mps 746 mmHg 83%
Show more